Location: Oak Glen
(34.0495°N, 116.9470°E)
Time: 07:07:23
(UTC-08:00)

Vanguard 2 Rocket - All Passes

Search period start: 22 February 2018 00:00
Search period end: 04 March 2018 00:00
Orbit: 555 x 3327 km, 32.9° (Epoch: 21 February)

Date Brightness Start Highest point End Pass type
(mag) Time Alt. Az. Time Alt. Az. Time Alt. Az.
22 Feb - 03:13:49 10° SSE 03:17:56 14° SE 03:23:06 10° E visible
22 Feb - 05:21:15 10° SW 05:30:18 53° SSE 05:45:49 10° ENE visible
22 Feb - 07:33:38 10° WSW 07:46:11 84° S 08:06:03 10° E visible
22 Feb - 09:48:11 10° W 10:04:39 82° SSW 10:25:14 10° ESE visible
22 Feb - 12:04:35 10° WNW 12:23:05 56° SSW 12:41:02 10° SE visible
22 Feb - 14:25:17 10° W 14:39:08 24° SW 14:51:10 10° S visible
23 Feb - 04:23:04 10° SSW 04:30:34 38° SE 04:42:53 10° E visible
23 Feb - 06:34:18 10° WSW 06:44:59 77° SSE 07:03:16 10° E visible
23 Feb - 08:48:01 10° W 09:02:33 86° S 09:23:12 10° E visible
23 Feb - 11:03:25 10° W 11:21:09 66° SSW 11:40:39 10° SE visible
23 Feb - 13:21:44 10° W 13:38:15 34° SW 13:53:15 10° SSE visible
24 Feb - 03:25:39 10° S 03:31:22 23° SE 03:39:45 10° E visible
24 Feb - 05:35:21 10° WSW 05:44:24 66° SSE 06:00:26 10° E visible
24 Feb - 07:48:14 10° W 08:00:47 87° S 08:20:40 10° E visible
24 Feb - 10:02:48 10° W 10:19:05 74° SSW 10:39:29 10° ESE visible
24 Feb - 12:19:30 10° W 12:36:54 44° SW 12:54:10 10° SSE visible
24 Feb - 14:43:40 10° WSW 14:52:35 15° SW 15:00:51 10° SSW daylight
25 Feb - 02:30:21 10° SE 02:32:32 11° SE 02:35:01 10° ESE visible
25 Feb - 04:36:50 10° SW 04:44:25 51° SSE 04:57:43 10° E visible
25 Feb - 06:48:49 10° WSW 06:59:30 84° S 07:17:52 10° E visible
25 Feb - 09:02:38 10° W 09:17:06 81° SSW 09:37:39 10° ESE visible
25 Feb - 11:18:09 10° W 11:35:14 54° SSW 11:54:11 10° SE visible
25 Feb - 13:37:59 10° W 13:51:48 24° SW 14:04:49 10° S visible
26 Feb - 03:38:48 10° SSW 03:45:00 34° SE 03:55:06 10° E visible
26 Feb - 05:49:44 10° WSW 05:58:45 77° SSE 06:15:01 10° E visible
26 Feb - 08:02:53 10° W 08:15:24 85° S 08:35:14 10° ESE visible
26 Feb - 10:17:27 10° W 10:33:22 64° SSW 10:53:23 10° SE visible
26 Feb - 12:34:53 10° W 12:50:39 33° SW 13:06:34 10° SSE visible
27 Feb - 02:41:33 10° S 02:46:02 20° SE 02:52:19 10° E visible
27 Feb - 04:50:59 10° WSW 04:58:34 65° SSE 05:12:21 10° E visible
27 Feb - 07:03:26 10° W 07:14:06 86° S 07:32:28 10° E visible
27 Feb - 09:17:16 10° W 09:31:33 72° SSW 09:51:50 10° ESE visible
27 Feb - 11:33:07 10° W 11:49:11 43° SW 12:07:09 10° SSE visible
27 Feb - 13:56:31 10° WSW 14:05:27 15° SW 14:14:09 10° SSW visible
28 Feb - 03:52:35 10° SW 03:58:55 48° SSE 04:09:57 10° E visible
28 Feb - 06:04:16 10° W 06:13:17 84° S 06:29:37 10° E visible
28 Feb - 08:17:30 10° W 08:29:58 79° SSW 08:49:40 10° ESE visible
28 Feb - 10:32:12 10° W 10:47:32 52° SSW 11:06:47 10° SE visible
28 Feb - 12:51:16 10° W 13:04:24 23° SW 13:17:51 10° S visible
01 Mar - 02:54:39 10° SSW 02:59:46 31° SE 03:07:46 10° E visible
01 Mar - 05:05:24 10° WSW 05:12:57 76° SSE 05:26:56 10° E visible
01 Mar - 07:18:04 10° W 07:28:43 84° S 07:47:02 10° ESE visible
01 Mar - 09:31:56 10° W 09:45:54 61° SSW 10:05:37 10° SE visible
01 Mar - 11:48:37 10° W 12:03:07 32° SW 12:19:19 10° SSE visible
02 Mar - 01:57:33 10° S 02:00:57 17° SE 02:05:24 10° E daylight
02 Mar - 04:06:47 10° WSW 04:13:07 63° SSE 04:24:36 10° E visible
02 Mar - 06:18:53 10° W 06:27:53 86° S 06:44:14 10° E visible
02 Mar - 08:32:08 10° W 08:44:26 70° SSW 09:03:47 10° ESE visible
02 Mar - 10:47:15 10° W 11:01:40 40° SSW 11:19:34 10° SSE visible
02 Mar - 13:10:10 10° WSW 13:18:18 14° SW 13:26:37 10° SSW visible
03 Mar - 03:08:28 10° SW 03:13:46 45° SSE 03:22:39 10° E visible
03 Mar - 05:19:57 10° W 05:27:30 84° S 05:41:33 10° E visible
03 Mar - 07:32:41 10° W 07:43:17 77° SSW 08:01:24 10° ESE visible
03 Mar - 09:46:45 10° W 10:00:11 49° SSW 10:18:53 10° SE visible
03 Mar - 12:05:11 10° W 12:17:06 21° SW 12:30:14 10° S visible
